Weather History for KAAT - December, 2012

Change the Weather History Date:

Saturday, December 22, 2012

  Actual Average Record
Temperature  
Mean Temperature 31 °F 29 °F  
Max Temperature 36 °F 40 °F 61 °F (1960)
Min Temperature 25 °F 18 °F -25 °F (1990)
Degree Days  
Heating Degree Days 34 36  
Month to date heating degree days 739 775  
Since 1 July heating degree days 2153 2585  
Cooling Degree Days 0 0  
Month to date cooling degree days 0 0  
Year to date cooling degree days 224 156  
Moisture  
Dew Point 29 °F    
Average Humidity 88    
Maximum Humidity 100    
Minimum Humidity 75    
Precipitation  
Precipitation 0.18 in 0.06 in 1.30 in (1931)
Month to date precipitation 2.22 1.22  
Year to date precipitation 9.84 13.68  
Sea Level Pressure  
Sea Level Pressure 29.74 in    
Wind  
Wind Speed 10 mph (SSW)    
Max Wind Speed 30 mph    
Max Gust Speed 39 mph    
Visibility 6 miles    
Events Fog , Rain , Snow    
T = Trace of Precipitation, MM = Missing Value Source: NWS Daily Summary

Daily Weather History Graph

Daily Weather History Graph

Search for Another Location

Airport or City:

Trip Planner

Search our weather history database for the weather conditions in past years. The results will help you decide how hot, cold, wet, or windy it might be!

Date:

Astronomy

Dec. 22, 2012 Rise Set
Actual Time 7:26 AM PST 4:36 PM PST
Civil Twilight 6:54 AM PST 5:07 PM PST
Nautical Twilight 6:19 AM PST 5:42 PM PST
Astronomical Twilight 5:45 AM PST 6:16 PM PST
Moon 12:58 PM PST (12/22) 2:14 AM PST (12/22)
Length of Visible Light 10h 13m
Length of Day
9h 10m
Waxing Gibbous, 74% of the Moon is Illuminated
Dec 22
Waxing Gibbous
Dec 28
Full
Jan 4
Last Quarter
Jan 11
New
Jan 18
First Quarter

Hourly Weather History & Observations

Time (PST) Temp. Windchill Dew Point Humidity Pressure Visibility Wind Dir Wind Speed Gust Speed Precip Events Conditions
12:55 AM 34.0 °F 26.0 °F 28.9 °F 82% 29.72 in 10.0 mi South 10.4 mph - N/A   Clear
1:55 AM 33.1 °F 30.0 °F 28.0 °F 82% 29.70 in 10.0 mi ESE 3.5 mph - N/A   Mostly Cloudy
2:55 AM 36.0 °F 33.3 °F 30.0 °F 79% 29.68 in 10.0 mi ESE 3.5 mph - N/A   Mostly Cloudy
3:44 AM 35.6 °F 25.5 °F 32.0 °F 87% 29.64 in 10.0 mi SSE 17.3 mph 23.0 mph 0.00 in Rain Light Rain
3:55 AM 35.1 °F 25.9 °F 33.1 °F 92% 29.65 in 10.0 mi South 13.8 mph 25.3 mph 0.00 in Rain Light Rain
4:31 AM 35.6 °F 26.6 °F 33.8 °F 93% 29.62 in 10.0 mi SSE 13.8 mph - 0.02 in   Overcast
4:55 AM 35.1 °F 24.5 °F 33.1 °F 92% 29.64 in 10.0 mi SSE 18.4 mph 28.8 mph 0.02 in   Overcast
5:55 AM 36.0 °F 24.7 °F 33.1 °F 89% 29.64 in 10.0 mi South 21.9 mph 28.8 mph 0.00 in   Overcast
6:10 AM 33.8 °F 23.2 °F 32.0 °F 93% 29.62 in 9.0 mi South 17.3 mph 27.6 mph 0.00 in Snow Light Snow
6:37 AM 33.8 °F 23.9 °F 32.0 °F 93% 29.64 in 2.0 mi South 15.0 mph 21.9 mph 0.02 in Snow Light Snow
6:46 AM 33.8 °F 26.4 °F 32.0 °F 93% 29.65 in 1.2 mi SSW 9.2 mph - 0.03 in Snow Light Snow
6:51 AM 32.0 °F 27.5 °F 32.0 °F 100% 29.65 in 0.8 mi SSW 4.6 mph - 0.05 in Snow Light Snow
6:55 AM 32.0 °F 27.5 °F 32.0 °F 100% 29.69 in 0.5 mi South 4.6 mph - 0.07 in Fog , Snow Snow
7:13 AM 32.0 °F - 32.0 °F 100% 29.65 in 1.8 mi Calm Calm - 0.05 in Snow Light Snow
7:16 AM 32.0 °F 26.4 °F 32.0 °F 100% 29.65 in 3.0 mi SE 5.8 mph - 0.05 in Snow Light Snow
7:26 AM 32.0 °F 27.5 °F 32.0 °F 100% 29.65 in 1.8 mi South 4.6 mph - 0.06 in Snow Light Snow
7:31 AM 32.0 °F 27.5 °F 32.0 °F 100% 29.65 in 2.0 mi SSE 4.6 mph - 0.06 in Snow Light Snow
7:41 AM 32.0 °F 27.5 °F 32.0 °F 100% 29.66 in 5.0 mi South 4.6 mph - 0.06 in Snow Light Snow
7:46 AM 32.0 °F 25.6 °F 32.0 °F 100% 29.66 in 1.8 mi South 6.9 mph - 0.07 in Snow Light Snow
7:55 AM 33.1 °F 24.9 °F 32.0 °F 96% 29.70 in 1.2 mi South 10.4 mph - 0.08 in Snow Light Snow
8:10 AM 32.0 °F 25.6 °F 32.0 °F 100% 29.67 in 3.0 mi South 6.9 mph - 0.01 in Snow Light Snow
8:41 AM 33.8 °F 28.6 °F 32.0 °F 93% 29.68 in 10.0 mi SSW 5.8 mph - 0.01 in   Overcast
8:48 AM 33.8 °F 25.8 °F 32.0 °F 93% 29.68 in 10.0 mi SSW 10.4 mph - 0.01 in   Overcast
8:55 AM 33.1 °F 24.9 °F 32.0 °F 96% 29.70 in 10.0 mi South 10.4 mph - 0.01 in   Overcast
9:55 AM 33.1 °F 24.9 °F 30.0 °F 89% 29.75 in 10.0 mi South 10.4 mph - N/A   Overcast
10:36 AM 30.2 °F 16.5 °F 28.4 °F 93% 29.75 in 0.8 mi WSW 24.2 mph 34.5 mph 0.00 in Snow Light Snow
10:45 AM 32.0 °F 20.1 °F 30.2 °F 93% 29.75 in 0.5 mi WSW 19.6 mph 29.9 mph 0.00 in Fog , Snow Light Snow
10:55 AM 30.9 °F 17.8 °F 28.9 °F 92% 29.79 in 1.2 mi West 23.0 mph 39.1 mph 0.00 in Snow Light Snow
11:00 AM 30.2 °F 17.4 °F 28.4 °F 93% 29.75 in 3.0 mi West 20.7 mph 32.2 mph 0.00 in Snow Light Snow
11:15 AM 30.2 °F 17.4 °F 28.4 °F 93% 29.75 in 10.0 mi West 20.7 mph 27.6 mph 0.00 in   Scattered Clouds
11:55 AM 30.0 °F 17.9 °F 26.1 °F 85% 29.80 in 8.0 mi West 18.4 mph 32.2 mph 0.00 in   Overcast
12:08 PM 30.2 °F 18.1 °F 28.4 °F 93% 29.76 in 2.0 mi West 18.4 mph 28.8 mph 0.00 in Snow Light Snow
12:15 PM 30.2 °F 18.5 °F 26.6 °F 86% 29.76 in 4.0 mi West 17.3 mph 28.8 mph 0.00 in Snow Light Snow
12:32 PM 30.2 °F 18.9 °F 26.6 °F 86% 29.76 in 4.0 mi WSW 16.1 mph 25.3 mph 0.00 in Snow Light Snow
12:55 PM 32.0 °F 24.2 °F 28.0 °F 85% 29.80 in 10.0 mi SW 9.2 mph - 0.00 in   Mostly Cloudy
1:55 PM 33.1 °F 26.1 °F 28.0 °F 82% 29.78 in 10.0 mi West 8.1 mph - N/A   Clear
2:55 PM 30.9 °F 22.8 °F 27.0 °F 85% 29.79 in 10.0 mi West 9.2 mph - N/A   Clear
3:55 PM 30.0 °F 20.5 °F 26.1 °F 85% 29.83 in 10.0 mi West 11.5 mph - N/A   Overcast
4:55 PM 27.0 °F - 26.1 °F 96% 29.85 in 10.0 mi Calm Calm - N/A   Mostly Cloudy
5:55 PM 28.9 °F - 27.0 °F 92% 29.85 in 9.0 mi Calm Calm - 0.00 in   Overcast
6:55 PM 30.0 °F 21.1 °F 27.0 °F 88% 29.88 in 4.0 mi South 10.4 mph - 0.00 in Snow Light Snow
7:55 PM 27.0 °F 21.6 °F 25.0 °F 92% 29.90 in 10.0 mi South 4.6 mph - 0.00 in   Overcast
8:55 PM 27.0 °F 18.0 °F 23.0 °F 85% 29.93 in 10.0 mi SW 9.2 mph - N/A   Scattered Clouds
9:55 PM 25.0 °F 18.1 °F 19.9 °F 81% 29.94 in 10.0 mi South 5.8 mph - N/A   Partly Cloudy
10:55 PM 28.0 °F 18.6 °F 23.0 °F 81% 29.96 in 10.0 mi South 10.4 mph - N/A   Overcast
11:55 PM 28.9 °F 25.2 °F 23.0 °F 78% 29.96 in 10.0 mi SE 3.5 mph - N/A   Overcast